Wind_Speed
40 40 40 39 38 40 40 40 42 43 44 45 45 45 45 46 45 43 43 43 44 46 45 44 44 45 45 43 42 41 40 40 39 39 38 37 36 36 36 36 36 37 37 37 37 37 37 37 37 38 38 39 39 39 39 38 38 38 37 36 36 37 38 39 38 37 36 36 36 37 38 39 40 40 40 40 39 38 38 38 38 38 38 39 41 43
41 41 40 40 41 42 41 41 43 43 43 44 45 45 45 45 45 44 43 43 43 44 43 43 44 44 44 43 42 41 40 39 39 38 38 36 34 33 32 32 32 32 33 33 33 34 35 36 37 38 38 39 39 39 38 38 38 38 38 37 37 37 37 38 38 38 37 37 37 37 38 39 40 41 41 41 41 40 40 40 40 40 39 39 40 42
42 42 40 41 43 43 42 42 42 43 43 44 45 45 45 44 44 44 44 44 44 44 43 43 43 43 43 41 42 42 41 40 39 37 37 36 35 34 34 32 31 30 30 31 31 30 31 33 36 37 38 38 38 38 38 38 38 38 39 39 39 38 38 38 39 39 39 39 39 39 40 40 41 42 42 42 42 42 41 40 40 40 40 40 40 41
44 42 41 42 43 45 44 42 41 41 42 43 44 44 43 42 44 44 44 44 44 44 45 45 45 45 42 40 41 41 41 41 40 38 38 38 37 36 36 34 33 33 33 33 31 28 28 31 34 35 37 38 37 36 35 35 36 37 38 39 40 41 41 41 40 40 41 41 41 41 41 42 42 42 42 42 41 42 41 40 38 38 37 37 38 38
46 43 42 43 44 45 44 42 40 40 41 41 42 42 41 41 43 44 44 43 43 43 44 46 47 47 43 40 38 40 41 41 40 40 41 40 39 38 38 37 35 36 36 35 31 27 27 29 31 34 35 36 35 34 33 33 34 35 36 36 38 40 41 42 42 42 42 42 42 43 43 43 43 43 42 40 39 39 40 39 38 37 35 35 35 35
45 42 41 42 43 44 44 42 40 41 41 41 40 41 41 40 41 41 42 43 43 43 43 44 46 46 44 40 38 40 43 42 41 42 42 42 41 41 41 39 38 38 36 32 29 27 28 29 30 33 34 34 33 32 32 33 33 33 34 35 35 36 37 39 41 41 42 42 43 43 44 44 44 44 42 41 39 38 38 39 39 38 37 36 35 35
44 41 41 41 41 42 43 42 42 43 43 41 39 39 40 40 40 40 40 41 42 42 43 44 44 46 47 44 42 44 47 45 44 44 44 45 45 45 44 43 42 41 36 30 27 28 29 31 32 33 34 32 30 29 30 33 35 35 35 36 36 36 35 36 37 39 40 42 43 43 44 45 45 45 44 43 41 40 39 39 40 40 40 40 40 40
42 42 41 41 40 40 40 41 43 44 44 42 41 40 39 39 40 40 40 41 42 43 44 44 43 46 49 47 47 49 50 48 48 49 49 48 48 47 47 47 45 43 39 33 29 28 29 32 35 36 35 32 28 26 30 34 36 39 39 39 39 40 39 38 37 38 40 42 43 44 44 45 45 45 45 45 43 42 42 42 43 44 45 45 45 45
40 41 41 41 40 39 39 40 41 41 42 42 42 42 41 40 40 40 41 42 42 45 46 44 43 47 49 48 50 52 52 52 52 53 53 52 51 50 50 50 48 45 41 36 32 31 31 33 36 39 39 38 33 30 34 39 40 42 43 43 43 43 43 43 42 42 42 43 45 46 47 46 46 45 45 45 45 45 46 47 48 48 49 49 49 50
40 40 40 40 40 40 39 39 39 39 40 40 41 42 42 41 41 41 43 44 45 47 47 46 47 50 50 50 52 53 53 54 54 54 54 52 52 51 51 51 49 45 41 36 32 31 35 36 38 42 44 47 46 42 43 46 45 45 46 47 47 47 47 47 47 47 47 47 47 48 49 50 49 48 48 48 49 49 50 51 52 53 53 54 55 55
41 41 41 41 40 39 38 37 37 38 38 39 40 40 41 42 42 44 46 47 48 50 49 49 51 52 53 52 52 53 54 54 54 53 52 52 52 51 50 49 48 46 42 37 33 31 35 39 42 46 48 52 56 55 53 50 49 49 49 49 50 51 51 52 52 52 52 52 52 52 53 54 55 55 55 55 56 56 56 56 56 57 58 58 59 60
41 41 42 42 41 39 38 38 37 37 37 38 40 41 42 44 46 47 49 50 52 53 53 53 54 53 54 52 51 52 52 52 52 52 51 51 51 51 49 48 48 47 45 41 37 34 34 39 44 48 51 54 57 58 55 53 55 57 53 51 52 53 54 55 56 57 57 57 57 57 57 58 59 60 60 61 61 62 63 62 61 61 62 62 63 63
43 43 43 43 43 43 42 41 40 40 40 41 42 43 45 47 48 50 51 52 53 53 53 53 53 54 55 53 51 51 50 50 51 51 51 52 52 52 51 50 49 49 49 47 45 41 39 41 44 48 52 55 57 58 58 59 63 65 60 56 55 55 56 57 59 60 61 61 62 62 62 63 63 64 64 65 66 66 67 67 66 65 65 66 67 67
46 46 45 44 44 44 44 43 43 43 43 43 43 44 46 47 48 50 51 52 52 52 51 51 53 55 54 52 52 51 50 51 52 52 53 53 54 55 55 55 54 53 54 54 53 51 49 48 49 52 54 57 60 62 64 66 68 68 64 60 57 57 56 57 59 60 62 64 64 65 65 66 67 67 68 69 69 70 71 71 71 70 69 69 70 70
46 45 44 43 43 43 43 43 44 44 44 44 44 45 47 46 47 49 51 51 52 52 52 51 53 55 54 53 53 53 53 54 54 55 55 56 57 57 57 57 58 57 56 57 58 58 57 57 57 58 59 61 63 64 66 67 68 68 65 61 59 57 55 55 57 59 61 63 65 66 67 68 69 70 71 72 73 73 74 75 75 75 73 72 72 73
44 43 43 42 42 42 43 44 45 45 44 45 45 46 47 47 48 51 53 53 55 57 56 55 56 57 56 55 56 56 56 56 56 57 57 57 57 57 57 58 58 58 58 58 59 59 60 60 60 60 61 62 64 66 67 67 67 66 64 61 60 58 57 56 57 59 61 63 65 67 69 70 71 73 74 75 75 76 76 77 77 77 77 75 75 74
43 44 44 44 44 45 45 46 46 45 46 48 48 49 51 52 54 56 58 58 58 61 61 58 57 58 57 56 56 54 54 53 54 55 55 56 56 56 57 58 58 59 59 59 58 58 58 58 59 60 61 62 63 64 66 67 67 66 64 62 60 60 60 60 61 62 63 64 66 69 71 73 75 76 77 77 77 77 77 78 78 78 78 77 76 75
47 48 49 50 51 51 50 50 50 51 52 53 54 54 55 57 57 58 59 59 59 61 60 57 55 55 54 55 55 53 52 51 50 52 52 53 54 56 57 57 58 59 59 60 59 59 58 59 60 61 62 64 64 64 65 66 66 66 65 64 63 63 64 64 65 65 65 65 65 67 70 74 78 80 81 81 81 80 80 80 80 80 79 78 77 76
51 52 53 54 55 55 54 54 55 55 55 55 55 54 55 55 55 55 56 57 57 58 59 56 54 54 54 55 54 53 51 49 49 49 50 52 53 54 55 56 57 58 59 59 60 60 61 62 63 64 65 65 66 66 66 66 67 67 67 66 66 65 65 66 66 66 65 64 63 62 64 67 72 77 81 83 84 83 83 83 82 81 80 79 78 76
52 53 54 55 55 55 55 55 55 55 54 54 54 54 54 54 54 54 54 55 56 56 56 56 55 55 54 53 51 50 49 48 49 50 51 52 53 54 56 57 58 59 60 60 61 62 63 65 67 67 67 66 66 66 66 66 66 66 66 65 64 63 64 65 65 64 63 63 61 61 61 63 64 67 72 76 79 80 81 80 80 81 81 80 79 77
53 55 56 55 55 55 55 54 54 54 54 54 54 53 53 52 52 53 53 53 53 54 54 55 56 54 50 49 49 49 48 49 51 51 52 53 54 55 57 58 60 61 62 62 63 64 65 67 68 68 68 67 67 66 65 64 64 63 63 64 65 66 66 67 68 68 68 68 67 67 67 67 67 68 69 70 71 73 75 76 77 79 81 82 83 83
56 57 57 56 55 54 54 55 56 56 55 56 55 53 52 51 51 52 53 52 52 54 54 54 56 52 47 47 49 48 48 50 52 52 53 54 55 56 58 60 61 62 63 64 64 66 67 68 69 69 69 70 70 70 69 69 68 67 68 70 71 72 73 73 74 74 75 76 75 75 75 75 75 76 76 75 74 74 75 77 79 81 83 85 88 88
58 58 58 57 56 55 55 57 59 58 56 55 55 53 51 50 50 51 53 53 52 54 54 54 56 54 50 49 51 50 51 52 53 54 55 56 57 58 59 60 61 62 63 65 66 67 69 70 71 72 73 74 75 75 74 73 73 73 74 75 76 77 78 79 79 80 80 80 80 81 82 82 82 83 83 83 83 82 82 83 85 85 86 86 87 87
59 59 59 59 58 57 56 58 59 58 55 53 52 50 49 50 51 51 53 55 55 55 55 55 57 56 52 51 50 50 52 53 53 53 54 55 57 58 60 61 62 63 64 65 67 69 70 72 73 74 75 76 77 77 77 77 77 77 78 79 80 81 82 83 84 85 86 86 87 88 88 87 88 88 89 90 90 91 91 91 91 91 91 92 91 91
58 59 60 60 60 58 56 56 58 57 54 52 51 50 50 50 52 54 55 56 57 58 55 55 57 56 52 51 52 53 53 53 53 53 54 55 56 58 60 61 63 64 66 67 69 71 72 73 75 76 77 78 79 80 81 82 83 84 84 85 85 86 88 89 90 90 91 93 94 93 91 90 90 91 92 93 94 95 96 96 97 97 97 98 98 98
58 59 59 60 61 59 56 55 56 57 56 54 52 52 52 52 53 55 57 58 60 60 58 57 59 58 55 55 58 59 59 58 58 60 61 62 62 63 65 66 67 69 71 73 74 75 76 78 79 80 81 82 83 84 86 87 88 89 89 90 90 91 92 93 93 94 94 95 95 94 93 93 93 93 93 94 95 96 97 98 99 100 100 101 101 101
59 60 59 59 61 59 57 56 57 57 57 56 55 54 54 54 55 57 60 62 61 61 62 61 61 62 60 58 60 62 63 63 63 65 66 67 68 69 70 71 72 73 75 76 77 78 79 80 81 82 83 84 85 86 87 87 88 89 90 91 92 93 93 94 94 95 96 96 95 96 96 96 96 96 97 97 98 99 99 100 101 102 102 103 103 103
60 60 59 59 60 58 57 57 57 58 59 58 57 56 55 55 57 60 63 64 62 65 67 64 62 64 64 61 61 63 65 66 66 67 68 69 70 70 71 71 72 73 74 75 77 78 79 80 81 82 83 84 85 86 86 87 88 89 90 91 92 94 95 96 97 98 98 99 100 100 100 101 101 102 102 102 102 103 103 104 104 105 105 105 106 106
60 60 58 59 60 58 57 58 58 58 59 59 58 58 57 57 59 62 64 64 64 67 69 66 64 66 66 64 64 65 66 67 68 68 69 69 69 70 71 71 72 73 74 75 76 77 79 80 81 82 83 84 85 86 87 88 89 90 92 93 95 96 98 99 100 101 102 102 103 104 105 105 106 106 107 107 107 107 108 108 108 108 109 109 109 110
60 59 58 58 59 58 57 58 59 59 60 60 60 60 60 60 62 63 64 63 65 68 68 67 67 68 67 66 66 66 67 68 69 69 69 69 70 71 72 72 73 74 75 76 77 78 79 81 82 83 84 86 87 88 90 91 92 94 95 96 98 99 100 101 102 102 102 103 103 103 104 104 105 105 106 106 107 107 108 109 109 110 110 111 111 112
59 59 58 59 59 58 57 58 60 60 61 62 62 61 61 62 63 62 63 63 65 68 68 68 70 70 66 65 66 67 68 68 69 70 71 71 72 73 73 74 75 77 78 79 80 81 82 83 84 85 87 88 90 91 92 93 95 96 97 98 99 100 100 101 100 100 100 99 99 99 99 99 99 99 99 100 101 102 103 103 104 105 106 107 108 109
57 58 58 58 60 59 57 59 61 60 62 64 63 61 60 60 61 62 62 63 65 66 67 69 70 69 66 65 66 68 68 68 69 71 72 73 74 74 75 76 77 78 79 80 82 83 84 85 86 88 89 90 91 92 92 93 94 94 95 95 95 95 95 95 94 93 93 92 92 92 91 91 91 91 92 92 93 94 95 96 97 98 98 99 100 101
57 58 58 59 61 60 58 60 62 61 64 67 63 59 58 59 61 63 63 62 63 64 67 69 69 69 68 68 69 69 70 71 71 72 74 75 76 76 76 77 79 80 81 81 83 84 85 86 86 86 86 86 87 87 87 88 88 88 89 88 87 87 86 85 85 84 84 84 84 84 84 84 84 85 85 86 87 88 89 90 90 91 92 92 93 94
57 58 58 59 62 62 59 60 63 65 68 66 60 57 59 61 62 63 62 62 62 64 67 69 70 71 71 71 71 71 73 73 73 75 76 77 78 78 78 79 81 81 81 82 83 83 84 83 82 81 81 80 80 80 80 80 80 80 80 79 79 78 78 78 78 78 78 78 78 78 79 79 79 80 80 81 82 83 84 85 85 86 87 88 88 89
58 59 59 60 62 62 60 61 65 68 67 64 60 59 61 62 62 63 63 63 63 65 67 70 72 73 73 73 73 73 74 74 75 76 77 79 79 79 79 80 80 80 80 80 80 80 78 76 74 74 73 73 73 73 72 72 72 72 72 72 72 73 73 73 73 73 73 73 74 75 75 76 76 77 78 79 80 80 81 82 82 83 84 85 86 86
58 59 60 60 62 63 62 63 67 68 66 63 61 61 60 61 62 64 66 65 63 65 68 71 73 73 74 74 74 75 75 75 76 77 78 80 79 79 79 78 78 77 77 76 74 72 69 68 66 66 66 66 66 66 66 66 66 66 67 67 68 68 69 69 69 70 70 71 72 73 74 75 76 77 78 79 80 80 81 82 82 83 83 84 84 84
57 59 59 60 62 63 64 65 67 68 67 62 59 58 59 60 62 65 68 66 64 66 71 73 74 74 74 75 75 76 77 77 77 78 79 79 78 78 76 75 73 72 71 68 66 63 62 61 61 61 61 61 61 61 62 62 63 64 64 65 66 66 66 67 67 68 69 70 72 73 75 76 78 78 79 80 80 81 81 81 81 81 82 82 81 80
57 58 59 61 62 62 63 65 66 68 67 61 57 57 60 62 64 67 69 68 66 68 72 73 74 75 75 76 76 77 77 78 77 77 77 77 76 74 72 70 67 65 62 60 59 58 57 56 56 56 56 57 58 59 60 61 62 63 63 63 64 64 65 66 67 68 70 72 74 75 77 78 78 78 78 78 78 79 79 79 79 79 79 79 78 78
58 58 58 61 62 61 62 65 66 68 66 62 59 60 62 64 66 68 71 71 69 69 71 73 74 76 76 76 77 77 77 78 77 75 74 73 72 69 66 64 61 59 57 56 55 54 53 53 53 54 55 56 57 58 59 60 60 61 61 62 63 64 66 67 69 71 72 73 75 76 76 76 76 76 77 77 77 78 78 78 78 78 77 77 76 75
58 59 60 62 62 61 63 66 68 67 65 63 63 63 64 66 68 70 74 73 70 69 71 73 75 76 76 76 77 77 76 76 74 71 69 67 65 62 60 58 57 55 54 53 52 52 52 52 53 54 55 56 57 57 58 58 59 60 62 63 65 66 67 69 70 71 72 72 73 74 74 75 75 76 77 77 77 77 77 76 75 74 73 72 71 70
59 61 62 62 62 63 65 67 69 67 65 65 66 66 66 68 70 72 74 72 70 71 73 74 75 75 75 75 75 74 73 71 69 66 63 60 58 56 55 54 53 52 52 51 51 51 51 52 52 53 54 55 55 57 58 59 60 62 63 65 66 66 67 68 68 69 70 71 71 72 73 74 75 75 75 74 74 73 73 72 71 68 66 63 61 58
59 61 63 63 63 64 65 67 70 70 66 65 66 67 69 72 73 74 73 72 72 73 73 74 74 74 73 73 72 71 69 66 64 60 57 55 53 52 51 50 50 49 49 49 49 49 50 50 51 52 53 54 56 58 59 61 62 63 64 64 65 65 65 66 67 68 69 70 71 72 72 73 72 72 71 70 70 69 68 66 63 60 57 55 51 48
60 62 62 62 63 64 66 69 72 71 67 67 69 71 72 74 73 73 73 73 73 73 73 73 73 72 71 69 67 66 64 61 58 55 53 51 50 48 47 47 47 47 47 47 48 48 49 50 51 52 54 55 57 59 60 61 62 62 63 63 63 63 64 65 66 67 69 69 70 70 70 69 68 67 66 65 64 63 62 59 56 53 52 50 46 44
61 61 61 61 63 66 69 71 72 71 69 70 72 72 72 73 72 72 72 72 72 73 72 71 70 68 67 65 63 61 58 55 52 51 49 48 46 45 45 45 45 46 46 47 48 49 50 51 52 53 55 56 58 59 60 61 61 61 62 62 62 62 63 64 66 67 68 68 67 67 66 65 63 62 60 59 58 58 58 56 52 50 48 45 44 43
62 61 61 63 66 68 70 71 71 71 70 71 73 72 71 71 70 70 70 71 71 70 68 67 66 64 62 61 59 57 54 51 50 48 47 45 44 44 44 44 44 45 47 48 49 50 51 52 53 54 56 57 59 60 60 60 60 60 60 61 61 62 63 64 65 66 65 65 64 63 62 60 58 55 53 53 54 55 55 53 50 48 45 43 42 42
62 61 63 66 68 69 70 70 70 70 70 70 71 70 69 68 67 66 66 66 65 64 62 61 61 59 58 57 56 54 52 51 49 48 46 44 43 43 44 44 45 47 48 49 50 51 52 53 54 55 57 58 60 60 60 60 60 60 60 60 61 62 63 64 64 63 62 62 61 60 57 54 51 49 48 48 49 50 50 50 48 46 45 43 43 43
63 62 65 69 70 71 72 70 68 69 68 66 66 66 65 65 63 60 59 59 58 58 57 56 55 54 53 53 52 52 51 50 49 48 46 45 44 44 45 46 47 48 49 50 51 52 53 54 55 56 57 59 60 60 60 60 60 60 60 60 61 62 62 62 61 61 60 59 57 55 52 49 46 44 43 44 44 44 45 46 45 44 43 43 43 43
64 64 68 71 71 71 70 68 67 67 65 64 64 64 63 60 58 55 55 54 53 53 52 51 50 50 49 50 50 51 50 49 49 47 46 46 46 46 47 48 48 49 50 51 52 54 55 55 56 57 58 59 60 60 59 59 60 60 60 60 60 60 60 59 59 58 57 56 54 50 47 44 42 41 41 41 42 42 43 42 41 39 40 40 40 40
66 68 69 70 69 69 69 68 66 65 65 63 62 60 57 56 55 53 52 51 51 50 49 47 46 47 48 49 50 51 50 49 48 47 47 47 47 48 49 49 49 50 51 52 53 55 55 56 57 58 59 59 60 59 59 59 59 59 59 58 57 57 57 57 56 56 55 53 49 46 43 41 40 40 40 40 40 41 42 42 40 37 36 37 38 38
66 68 68 66 67 68 67 65 63 63 63 61 58 55 54 54 54 53 50 49 49 49 48 47 47 47 49 50 50 51 50 49 48 48 48 48 49 49 50 50 50 51 52 53 54 55 55 57 58 58 59 59 59 59 58 58 58 58 56 54 54 54 55 55 54 54 52 49 45 42 40 39 39 39 39 39 38 38 39 41 42 40 38 37 39 40
66 67 65 64 67 67 64 60 58 58 59 58 55 53 52 52 52 52 50 49 49 49 49 50 49 49 49 50 51 52 51 49 48 49 49 49 50 50 51 51 52 53 53 54 55 55 56 57 58 59 59 59 59 58 58 57 56 55 52 51 52 53 54 54 53 52 48 45 42 40 39 38 39 39 38 37 37 37 38 39 41 42 42 41 41 42
Wind_Direction
280 281 282 285 285 284 285 286 286 285 285 286 287 288 288 288 289 290 289 288 287 287 289 291 291 291 292 294 297 297 297 297 298 298 297 296 295 294 293 292 292 291 290 289 289 288 288 286 284 282 280 279 278 278 277 276 276 275 273 271 267 266 267 267 267 266 264 263 262 261 261 261 261 261 261 260 260 261 261 261 261 260 259 257 256 254
281 280 283 285 284 284 285 285 284 284 284 285 285 286 286 288 290 290 290 289 288 288 290 291 291 292 295 298 300 300 301 301 301 301 301 300 299 297 295 294 292 291 290 290 289 288 288 285 283 280 279 278 277 277 276 275 275 274 273 272 269 267 266 267 267 267 266 265 264 263 262 261 261 261 261 261 262 263 264 263 263 262 261 260 258 257
279 280 282 282 282 284 284 283 282 283 284 285 286 287 289 291 292 293 293 293 293 293 294 293 293 294 296 299 300 300 302 302 302 303 302 301 301 299 299 299 298 297 295 295 294 291 285 281 279 277 276 275 276 275 276 276 275 274 273 271 270 269 268 267 267 267 267 267 267 265 264 262 261 261 261 261 263 264 265 265 264 263 263 262 261 260
278 280 281 281 281 281 281 281 281 282 283 284 286 288 290 292 292 292 293 293 294 295 295 294 294 294 296 299 301 302 303 303 304 304 303 303 303 302 302 304 304 305 304 304 303 295 284 277 273 273 272 271 272 273 273 274 274 274 273 271 270 270 270 269 268 268 267 267 266 266 264 263 262 261 261 261 262 264 265 266 265 263 262 262 262 262
278 281 281 281 280 279 279 280 280 280 281 281 283 284 286 286 287 289 290 290 291 291 292 293 294 295 298 302 303 303 302 302 303 304 304 304 304 304 305 307 307 307 308 308 306 293 281 279 274 270 269 268 268 270 271 273 274 273 272 271 270 270 270 270 270 270 269 267 265 264 264 262 261 260 259 259 261 262 263 264 263 262 260 260 260 261
278 278 278 278 278 279 280 281 281 281 280 280 281 282 283 283 283 285 286 288 288 289 290 291 292 294 297 301 303 301 300 300 301 301 301 302 302 303 305 308 309 310 309 307 302 289 277 276 274 268 265 263 263 266 270 272 273 273 273 272 271 270 270 270 270 269 269 268 265 263 262 261 261 259 258 257 257 258 259 260 260 261 260 260 260 261
278 277 276 276 277 279 282 283 283 283 283 283 282 282 283 284 284 284 285 286 286 288 289 290 293 294 295 299 302 300 299 300 299 298 298 299 300 303 305 306 307 308 309 304 295 288 281 273 267 261 256 253 254 260 268 273 274 274 273 272 271 270 270 269 269 268 267 266 264 263 261 260 259 258 258 256 256 256 258 259 259 260 262 262 262 263
279 279 279 279 279 279 280 281 282 283 285 286 285 284 284 284 285 285 285 285 285 287 288 290 295 294 293 297 299 298 298 299 299 299 300 301 302 303 304 303 302 303 306 304 292 281 279 275 268 259 251 246 244 252 267 273 275 275 274 273 272 271 270 268 268 267 266 265 263 261 259 258 257 256 257 256 256 257 259 260 261 263 264 264 264 266
280 281 281 282 282 281 280 279 280 282 283 285 285 286 286 285 284 284 284 284 285 286 287 291 295 293 291 294 295 295 297 299 300 301 301 303 303 304 303 301 301 301 301 302 295 280 272 271 268 261 254 252 249 251 264 273 276 274 273 273 273 273 272 270 268 266 266 266 265 262 260 257 256 255 257 258 259 261 262 263 263 265 266 266 266 267
281 281 282 283 283 282 282 282 282 282 283 284 285 285 285 285 284 284 284 285 286 286 288 293 294 293 291 291 291 291 294 296 297 298 298 300 300 300 301 300 301 301 299 297 292 280 271 269 266 262 258 258 258 256 261 269 275 276 273 272 272 272 272 272 271 269 267 266 265 264 262 260 258 257 258 260 263 265 266 267 267 267 268 268 268 269
281 281 282 282 282 283 283 283 284 284 284 284 284 283 284 284 284 284 285 285 286 286 289 292 291 291 289 288 289 290 291 293 295 297 297 297 297 297 298 298 298 298 297 294 287 276 269 266 264 264 263 264 263 261 259 263 273 279 276 272 272 271 271 272 271 271 270 269 267 265 264 262 261 261 261 262 264 265 267 269 269 269 269 270 270 271
281 282 282 282 282 283 283 283 284 283 283 283 282 282 282 282 282 282 282 284 285 286 287 287 287 286 286 287 289 290 291 293 294 295 295 294 295 295 295 296 295 295 294 293 288 279 270 265 262 263 264 264 263 260 260 264 273 280 278 274 272 271 271 271 271 271 271 271 270 268 266 265 265 265 265 265 265 266 267 269 270 270 269 270 270 271
281 281 281 281 282 282 282 282 282 280 280 280 280 280 279 279 279 279 281 283 284 284 284 284 284 285 286 288 289 289 290 290 289 289 290 291 292 293 293 292 291 291 290 289 286 280 273 267 264 263 262 262 262 262 264 268 273 277 277 274 272 271 270 270 270 270 270 270 271 270 270 269 268 268 268 268 268 268 268 270 271 271 271 270 270 270
281 280 280 280 280 281 282 282 281 280 280 279 279 279 278 279 280 281 283 284 284 283 283 283 283 283 285 287 288 288 288 287 287 287 287 288 289 289 290 289 288 287 286 285 283 280 276 272 268 266 265 265 265 265 266 267 270 272 273 273 271 269 268 266 266 267 267 268 269 270 270 270 270 270 270 270 270 270 271 271 272 272 272 272 271 270
279 279 279 280 282 283 283 282 281 281 280 280 279 279 279 280 282 283 282 282 282 281 280 282 282 283 286 287 288 288 288 287 286 286 285 285 285 285 285 285 284 284 282 281 281 280 278 275 272 270 268 268 268 267 267 268 269 271 273 272 271 268 265 262 260 260 262 264 265 266 267 268 269 270 270 270 271 271 271 272 272 272 272 272 272 272
280 281 281 282 283 284 283 282 280 279 277 276 276 277 277 278 279 279 278 279 279 279 280 282 283 283 285 285 286 286 286 286 285 284 283 282 282 282 282 282 282 281 280 280 279 278 278 276 274 272 270 270 270 270 270 271 272 273 273 272 270 267 265 262 259 257 258 259 260 262 263 264 265 266 267 268 268 269 270 271 272 272 272 272 272 271
282 282 282 282 282 281 280 278 277 276 275 276 277 278 278 277 277 277 278 278 278 278 280 283 282 283 283 283 285 284 283 283 282 281 280 279 280 280 280 280 279 279 279 279 279 278 276 275 275 274 273 272 271 271 272 273 274 274 274 272 270 268 267 266 264 263 262 260 259 259 260 260 262 263 264 265 265 267 268 269 269 270 271 272 272 271
279 279 280 281 280 279 279 277 276 276 277 278 279 279 279 278 278 279 279 280 280 279 281 282 281 282 283 284 286 285 282 281 279 278 278 278 278 277 277 277 277 277 278 277 277 276 275 274 274 274 274 274 274 274 273 274 274 275 275 274 273 272 272 272 272 271 270 267 265 263 261 259 259 259 260 262 263 264 266 267 268 268 268 269 269 270
276 277 278 280 280 280 281 280 279 280 281 280 280 280 279 279 280 280 280 281 281 281 282 283 282 282 283 284 285 283 281 280 279 278 277 276 275 275 275 275 276 276 276 275 275 275 275 275 275 274 274 273 274 273 273 273 273 274 275 276 276 276 276 276 276 275 274 272 270 269 267 265 262 260 259 260 261 262 263 264 265 266 266 267 267 267
278 278 279 280 281 281 281 280 280 281 281 280 279 280 280 280 281 281 280 281 281 281 282 282 281 282 284 284 283 281 279 279 278 276 275 275 275 275 275 275 275 275 274 274 274 274 275 275 275 275 275 274 274 274 274 273 272 273 274 275 275 274 274 274 274 273 272 271 270 270 270 269 268 267 265 263 263 263 263 263 264 264 264 265 266 266
278 279 279 280 280 280 281 282 281 280 279 279 279 280 281 281 281 279 278 279 280 280 280 280 280 282 283 282 279 278 277 277 276 274 273 273 274 274 274 274 274 273 273 272 272 273 274 274 274 274 274 274 274 274 273 272 272 271 271 271 270 270 269 269 270 271 271 270 269 268 267 266 266 266 266 265 265 264 264 263 264 264 265 265 266 267
281 281 281 281 281 282 283 283 281 279 279 280 280 280 281 280 278 278 278 279 278 278 278 279 280 280 281 280 278 277 276 276 274 273 272 273 273 274 273 273 272 272 271 271 272 273 274 274 274 274 274 275 275 274 273 272 271 270 270 270 269 269 269 269 270 272 273 273 272 271 269 267 266 265 264 264 265 265 265 265 265 265 266 267 268 269
283 282 282 283 283 282 281 280 280 279 278 279 279 279 279 278 278 278 279 280 278 276 277 277 276 277 280 280 278 276 275 274 272 272 272 273 274 273 272 271 271 270 269 270 271 273 274 274 274 274 275 275 275 275 274 273 273 272 271 271 270 270 270 270 271 273 274 274 275 274 272 270 269 268 267 267 267 267 268 268 268 268 268 268 268 268
281 281 281 281 281 279 278 277 278 278 278 278 279 279 278 278 279 279 279 280 278 276 277 275 273 278 282 280 277 276 275 274 272 272 273 273 273 272 271 271 270 270 269 269 270 272 273 274 274 274 274 274 274 274 274 274 274 273 273 272 271 271 271 271 272 274 274 275 277 277 275 273 272 270 269 269 268 268 268 268 268 268 268 268 267 266
278 278 278 278 277 277 277 277 277 278 277 276 276 277 277 277 279 279 279 279 277 276 276 273 274 280 282 280 279 278 275 274 272 271 271 271 271 271 270 270 270 269 269 269 270 272 273 273 273 273 273 273 273 273 273 274 274 275 274 274 273 273 273 273 274 275 275 277 278 278 277 276 274 273 271 270 269 269 268 268 268 268 268 268 268 267
274 274 274 275 274 275 276 276 275 275 274 273 274 275 276 278 278 278 278 276 274 275 275 274 276 279 278 278 279 277 275 273 272 271 272 271 271 271 270 270 270 270 271 272 273 273 274 274 275 274 274 274 275 275 275 276 276 276 276 276 275 274 275 275 275 276 276 277 278 278 277 277 276 275 274 273 273 272 271 270 270 269 269 269 269 268
272 272 272 272 271 273 274 273 272 272 272 273 274 275 276 277 277 276 275 274 274 274 274 275 278 278 276 277 277 276 275 274 273 273 273 272 272 272 271 272 272 272 273 274 274 275 275 275 276 276 276 276 276 276 277 277 277 277 277 278 277 277 277 277 277 277 278 278 278 277 277 277 277 276 276 275 275 274 274 273 273 272 272 272 271 270
270 269 270 270 270 271 272 272 271 272 273 273 274 274 275 276 276 275 274 274 276 276 276 278 279 277 277 277 276 275 276 276 276 275 275 275 275 275 275 275 274 274 275 275 275 276 276 277 277 277 278 278 278 278 278 278 279 279 279 279 279 279 279 279 279 279 279 279 279 279 278 278 277 277 276 276 275 275 274 274 274 273 273 273 273 273
268 269 270 270 270 271 272 271 271 271 272 273 273 274 275 275 274 274 274 276 278 279 279 281 279 277 278 278 277 276 276 276 276 276 276 277 277 278 278 277 277 277 277 277 278 278 278 278 278 279 279 279 279 279 279 279 279 279 279 279 279 279 279 279 279 280 280 280 280 280 279 279 279 278 278 278 277 276 276 275 274 274 274 273 273 273
269 270 271 270 270 271 272 271 271 271 271 271 272 274 275 275 274 274 276 278 278 279 280 281 279 278 279 280 279 278 277 277 277 278 278 278 278 279 279 279 280 280 280 279 279 279 279 279 279 279 279 279 279 279 278 278 278 278 278 278 278 278 278 278 278 278 279 279 279 279 279 279 279 278 278 278 278 277 277 277 276 276 275 275 274 274
270 271 271 271 271 271 272 272 271 271 272 271 272 274 276 276 276 276 277 277 277 279 280 281 280 280 281 280 280 279 279 279 280 280 280 280 280 280 280 280 281 280 280 280 280 280 280 280 280 280 280 279 279 279 278 278 278 278 278 278 278 278 278 278 278 279 279 279 279 279 279 279 278 278 278 278 277 277 277 277 276 276 276 276 275 275
270 271 271 271 271 271 272 272 271 272 272 271 273 276 278 278 278 278 277 277 278 280 281 280 281 282 282 280 279 280 280 280 280 280 280 280 280 280 281 281 281 281 281 281 282 282 282 282 282 282 281 281 280 280 280 280 280 280 280 280 280 280 281 281 281 281 281 281 281 281 280 280 280 279 279 279 278 278 277 277 277 277 276 276 276 276
271 271 271 271 271 272 271 271 272 273 271 272 277 280 280 278 277 277 277 279 280 281 280 280 281 281 281 280 281 281 281 281 281 281 281 281 282 282 282 283 282 283 283 284 284 284 284 284 284 284 283 283 283 283 283 282 282 283 283 283 283 283 284 284 284 284 283 283 283 283 283 283 283 282 282 281 281 280 280 280 279 279 278 278 277 277
270 271 271 271 272 273 272 272 273 272 271 276 280 280 278 277 277 278 279 280 280 280 280 282 282 282 282 282 283 283 283 283 283 284 284 284 285 285 285 285 285 285 286 285 285 285 285 285 285 285 285 285 285 285 285 285 285 285 285 285 285 286 286 286 286 286 287 287 287 287 287 286 286 285 285 284 284 284 283 283 282 282 281 280 280 279
270 270 271 272 273 274 273 273 273 273 275 278 278 277 278 279 280 280 280 279 280 281 282 282 283 283 284 284 285 285 285 286 286 287 287 287 287 287 287 286 286 286 286 285 285 285 285 285 285 285 285 285 286 286 286 287 287 287 287 287 287 287 288 288 288 289 289 289 289 289 289 288 288 288 287 287 286 286 286 285 285 284 283 283 282 281
271 271 272 273 274 275 275 274 275 276 277 278 279 280 281 282 282 283 282 281 282 283 282 282 282 283 285 285 286 287 287 287 288 288 287 287 287 287 287 287 286 286 286 286 286 286 286 285 285 285 285 285 286 286 286 286 286 286 287 287 288 288 289 289 289 290 290 290 290 290 290 289 289 289 288 288 288 288 287 287 286 285 285 284 283 283
271 272 274 274 275 276 277 277 277 278 279 280 282 284 284 284 284 284 283 283 283 283 283 283 284 285 286 286 287 288 288 288 288 288 288 288 288 288 288 288 288 287 287 287 287 287 286 286 285 285 285 285 284 284 284 285 285 286 287 288 288 289 289 290 290 290 290 290 290 290 290 290 289 289 289 289 289 289 288 288 287 287 286 285 285 284
272 273 274 275 275 276 277 278 279 279 281 283 285 284 285 285 285 284 284 284 284 285 285 285 287 287 288 288 288 289 289 289 289 289 289 288 289 289 289 289 289 289 288 288 287 287 286 285 285 284 283 283 282 283 284 285 286 287 288 289 289 290 290 291 291 291 291 291 291 291 291 291 291 291 291 291 290 290 290 289 289 288 288 287 287 286
272 273 274 274 275 277 278 279 279 280 283 286 286 285 285 285 285 285 285 286 287 287 287 288 289 289 290 290 290 290 290 289 290 290 289 289 289 290 290 289 289 289 288 288 287 286 286 285 284 283 283 283 284 284 285 286 287 288 289 289 290 290 291 291 291 292 292 292 292 292 292 292 292 292 292 292 292 291 291 291 290 290 289 289 289 288
272 273 273 274 276 278 278 279 280 282 285 288 288 288 287 286 286 286 287 289 291 290 289 290 290 290 290 290 290 290 290 290 289 289 289 289 290 290 290 290 290 289 289 288 287 287 286 285 284 284 285 285 286 287 287 288 288 289 289 290 290 291 291 292 292 292 292 292 292 293 293 293 293 294 294 294 294 293 293 293 292 292 292 291 290 289
273 274 275 275 277 278 279 280 282 283 285 288 289 289 288 288 287 288 290 292 292 291 290 290 289 289 289 289 288 289 289 289 289 289 289 289 289 290 290 290 290 289 288 288 287 287 286 286 286 286 286 287 288 288 288 289 290 290 291 291 292 293 293 293 293 293 293 293 293 294 294 295 295 296 296 296 296 296 296 296 295 295 295 293 292 291
274 274 275 276 278 279 280 281 282 283 286 288 289 289 289 289 290 291 292 292 291 291 290 289 288 288 288 287 287 287 288 289 289 290 290 289 289 290 290 290 289 289 288 288 287 286 286 286 286 287 287 288 289 290 290 291 292 293 293 293 294 294 294 294 294 294 294 294 295 296 296 297 298 299 299 299 299 299 299 299 299 298 297 296 294 293
273 274 276 278 280 281 281 281 283 285 288 289 288 289 290 290 291 292 292 291 291 290 289 288 288 288 287 287 287 288 289 289 290 290 290 291 291 291 290 289 289 288 288 287 287 286 286 287 287 288 289 290 291 292 293 294 295 295 295 295 296 296 296 295 295 295 296 296 297 298 299 300 300 300 300 301 301 301 301 301 301 300 298 296 294 293
274 276 278 280 280 280 281 282 284 286 288 289 290 290 290 290 291 292 291 290 290 289 288 288 288 288 288 288 288 289 289 289 289 289 290 290 291 290 289 288 288 288 287 287 287 287 287 288 290 291 292 293 294 295 296 296 297 297 297 297 297 297 297 296 296 297 297 298 299 300 300 301 301 301 302 303 303 304 304 303 302 300 298 296 293 292
276 278 279 279 279 280 282 283 285 287 290 291 290 290 290 291 292 292 290 289 289 289 289 289 289 289 290 289 290 290 290 289 289 289 290 291 291 290 289 289 288 288 288 287 287 288 289 290 292 294 295 296 297 298 298 298 298 298 297 298 298 298 297 297 297 298 299 299 300 300 301 302 301 302 303 306 307 308 307 306 304 302 299 295 292 291
278 280 281 280 280 281 283 284 286 289 291 291 290 291 291 291 291 290 289 288 288 288 288 288 289 290 290 290 290 291 291 291 292 292 293 293 292 291 290 290 289 289 288 288 289 290 291 292 294 296 297 298 299 300 300 300 299 299 299 299 299 298 298 297 298 298 299 300 300 301 301 301 301 303 305 308 310 312 312 311 307 303 300 297 294 293
279 281 282 282 282 283 284 286 288 289 289 289 289 290 289 288 287 287 285 285 285 285 286 287 288 289 289 290 290 290 291 291 293 294 294 294 292 292 291 291 290 290 290 290 291 292 294 295 297 298 299 300 301 301 301 301 300 300 300 300 299 298 297 298 298 299 300 300 301 301 300 300 301 303 306 309 312 315 317 316 311 306 302 300 297 296
281 281 281 283 284 284 285 287 287 286 285 286 286 287 286 286 286 284 283 282 283 284 285 287 287 287 288 288 288 288 289 290 292 293 293 292 292 292 291 291 291 292 292 293 294 294 296 297 298 299 300 301 301 302 302 301 300 300 300 299 298 297 297 298 299 300 300 301 301 299 298 299 300 303 306 309 312 316 318 318 316 314 310 306 302 300
282 282 283 284 284 284 285 286 286 284 284 284 285 284 283 283 282 281 281 282 283 284 285 285 285 285 284 284 285 286 288 289 291 291 291 292 292 293 293 293 293 293 293 294 294 295 296 298 299 300 301 301 301 302 301 300 300 299 298 298 297 297 298 299 300 300 301 301 299 297 296 298 300 302 305 308 312 315 317 318 319 320 320 318 315 311
283 283 284 283 283 283 285 285 285 285 284 284 282 280 279 279 278 278 279 281 283 285 285 284 283 282 282 283 285 286 287 289 290 290 291 292 293 294 295 295 294 294 294 294 295 296 297 298 299 300 301 301 301 301 301 299 298 298 298 297 297 298 299 300 300 301 302 300 296 295 295 296 298 302 306 308 312 315 316 318 320 322 323 323 323 322
283 283 283 283 284 285 284 284 284 284 283 282 280 278 277 276 276 278 280 282 283 284 284 284 284 284 285 286 286 286 287 289 291 292 293 294 294 294 295 295 294 294 294 294 295 296 297 298 299 300 300 300 301 301 300 298 297 297 297 298 298 299 301 301 302 302 301 297 294 293 294 295 298 303 306 309 312 314 315 317 320 323 323 323 322 322
Height
5813 5812 5811 5813 5813 5812 5812 5812 5810 5809 5808 5807 5807 5806 5806 5805 5806 5808 5808 5806 5805 5802 5802 5803 5802 5800 5800 5801 5802 5802 5801 5801 5800 5800 5800 5799 5799 5799 5797 5796 5795 5794 5793 5792 5791 5790 5789 5788 5786 5785 5784 5783 5783 5783 5783 5783 5783 5783 5783 5783 5783 5782 5782 5782 5781 5781 5781 5780 5780 5780 5780 5780 5780 5780 5779 5779 5779 5779 5779 5779 5779 5779 5779 5779 5778 5778
5809 5808 5808 5809 5808 5807 5809 5808 5806 5805 5804 5803 5802 5801 5801 5801 5801 5802 5801 5801 5800 5798 5798 5798 5797 5796 5795 5796 5797 5796 5797 5796 5795 5795 5794 5793 5793 5793 5792 5792 5791 5790 5789 5788 5787 5787 5785 5784 5782 5780 5779 5778 5778 5778 5778 5779 5778 5778 5778 5778 5778 5778 5778 5778 5778 5777 5777 5776 5776 5775 5775 5775 5775 5775 5775 5774 5774 5774 5774 5774 5774 5774 5774 5773 5773 5773
5803 5804 5806 5805 5803 5803 5803 5803 5801 5800 5799 5798 5797 5796 5796 5796 5795 5795 5795 5794 5793 5793 5793 5792 5791 5791 5791 5792 5791 5790 5791 5789 5789 5790 5789 5788 5787 5786 5786 5786 5786 5786 5785 5784 5783 5782 5781 5780 5778 5777 5775 5774 5773 5773 5773 5774 5774 5774 5774 5773 5773 5773 5773 5773 5773 5773 5773 5772 5772 5771 5771 5770 5770 5770 5770 5770 5769 5769 5769 5769 5769 5769 5769 5769 5768 5768
5798 5800 5801 5800 5799 5798 5797 5797 5797 5796 5796 5794 5793 5792 5792 5792 5790 5789 5790 5789 5788 5787 5786 5784 5784 5785 5786 5787 5785 5785 5785 5782 5782 5783 5782 5782 5782 5780 5780 5781 5781 5780 5779 5778 5778 5777 5776 5774 5773 5772 5771 5770 5769 5769 5769 5769 5769 5769 5769 5769 5769 5768 5768 5768 5768 5768 5768 5768 5767 5767 5766 5766 5765 5765 5765 5764 5764 5764 5764 5764 5764 5764 5764 5764 5764 5763
5794 5795 5795 5795 5793 5792 5792 5792 5793 5792 5792 5790 5790 5789 5789 5788 5786 5785 5784 5784 5784 5783 5781 5779 5778 5778 5780 5782 5781 5780 5780 5778 5777 5777 5776 5776 5775 5775 5775 5775 5775 5774 5773 5773 5772 5771 5770 5770 5769 5768 5767 5766 5766 5765 5765 5765 5765 5764 5764 5763 5763 5763 5763 5762 5762 5762 5762 5762 5762 5762 5762 5761 5761 5760 5760 5759 5759 5759 5759 5759 5758 5758 5759 5758 5758 5758
5790 5792 5791 5790 5788 5787 5787 5787 5787 5787 5787 5786 5786 5785 5784 5784 5783 5782 5780 5780 5779 5778 5778 5776 5774 5774 5776 5778 5777 5775 5775 5774 5774 5773 5772 5771 5771 5770 5770 5770 5769 5769 5768 5767 5767 5767 5766 5766 5765 5764 5763 5762 5762 5761 5761 5761 5761 5760 5760 5759 5758 5758 5757 5757 5757 5756 5756 5756 5756 5757 5757 5756 5756 5755 5755 5754 5754 5754 5754 5754 5753 5753 5753 5753 5753 5753
5785 5786 5785 5785 5784 5783 5783 5782 5781 5780 5780 5781 5781 5780 5780 5779 5778 5778 5777 5776 5774 5773 5773 5771 5771 5771 5772 5773 5772 5769 5769 5768 5768 5769 5768 5767 5767 5766 5766 5765 5764 5763 5763 5763 5763 5762 5762 5762 5760 5759 5758 5757 5756 5756 5757 5757 5757 5756 5755 5755 5754 5753 5752 5751 5751 5751 5751 5750 5750 5750 5750 5750 5750 5750 5750 5749 5749 5749 5749 5749 5748 5748 5748 5748 5747 5747
5779 5779 5779 5780 5780 5780 5779 5778 5776 5775 5774 5775 5775 5775 5775 5774 5774 5773 5772 5771 5771 5770 5769 5768 5768 5767 5768 5768 5766 5764 5763 5762 5762 5763 5763 5762 5762 5762 5761 5760 5760 5759 5759 5758 5758 5758 5757 5757 5756 5755 5754 5752 5750 5750 5752 5753 5752 5752 5751 5750 5749 5748 5747 5746 5746 5746 5745 5745 5745 5744 5744 5744 5744 5744 5743 5743 5743 5743 5743 5743 5743 5742 5742 5742 5741 5741
5774 5774 5774 5774 5774 5774 5774 5773 5772 5772 5771 5770 5770 5769 5769 5769 5768 5768 5767 5766 5766 5766 5765 5766 5765 5763 5764 5764 5761 5759 5758 5756 5756 5757 5757 5755 5754 5755 5754 5753 5754 5755 5754 5754 5753 5753 5752 5752 5751 5751 5750 5748 5745 5743 5746 5749 5748 5748 5747 5746 5745 5744 5743 5742 5741 5740 5739 5739 5739 5739 5739 5738 5738 5737 5737 5737 5737 5737 5737 5736 5736 5736 5736 5735 5735 5735
5769 5769 5769 5769 5769 5769 5769 5768 5768 5768 5767 5767 5766 5765 5764 5763 5763 5762 5762 5761 5761 5761 5762 5762 5759 5757 5759 5760 5757 5756 5755 5753 5751 5752 5752 5751 5749 5749 5748 5746 5747 5748 5748 5748 5748 5748 5747 5747 5746 5745 5744 5744 5742 5739 5740 5742 5744 5744 5743 5741 5740 5739 5738 5737 5736 5735 5734 5733 5733 5733 5732 5732 5731 5731 5730 5730 5730 5730 5730 5729 5729 5728 5728 5728 5728 5727
5763 5764 5764 5764 5764 5764 5764 5763 5763 5763 5763 5762 5761 5760 5759 5758 5758 5757 5756 5756 5755 5756 5758 5757 5755 5753 5753 5754 5753 5752 5752 5750 5748 5747 5746 5746 5744 5744 5743 5742 5741 5741 5742 5742 5742 5742 5741 5741 5740 5739 5738 5737 5736 5734 5733 5734 5736 5737 5738 5737 5735 5734 5733 5731 5730 5729 5728 5727 5726 5726 5725 5725 5724 5724 5723 5723 5722 5722 5722 5721 5721 5720 5720 5720 5720 5719
5758 5758 5758 5758 5758 5759 5759 5758 5759 5758 5758 5757 5756 5756 5755 5753 5752 5751 5750 5750 5750 5751 5753 5751 5750 5748 5747 5749 5749 5747 5748 5747 5744 5742 5741 5740 5740 5739 5738 5737 5736 5734 5734 5735 5735 5735 5735 5735 5734 5733 5732 5730 5728 5727 5726 5725 5726 5727 5729 5729 5729 5728 5727 5726 5724 5723 5722 5721 5720 5719 5718 5718 5717 5717 5716 5715 5715 5714 5714 5713 5713 5712 5712 5711 5711 5711
5753 5753 5752 5753 5753 5754 5753 5753 5753 5753 5753 5752 5751 5751 5750 5748 5746 5745 5745 5745 5744 5746 5746 5745 5744 5742 5742 5745 5744 5743 5744 5743 5740 5738 5737 5736 5734 5733 5731 5731 5730 5729 5728 5728 5728 5728 5728 5727 5727 5726 5725 5723 5722 5720 5719 5718 5717 5717 5718 5719 5719 5719 5719 5718 5717 5716 5715 5714 5713 5712 5711 5710 5709 5709 5708 5707 5706 5706 5705 5704 5703 5703 5703 5702 5702 5702
5747 5747 5747 5747 5748 5749 5748 5747 5747 5747 5746 5746 5745 5744 5743 5742 5740 5739 5740 5738 5737 5738 5739 5740 5739 5736 5737 5739 5738 5738 5739 5737 5734 5733 5732 5730 5728 5726 5725 5723 5723 5723 5721 5720 5720 5719 5719 5719 5718 5718 5716 5715 5714 5713 5711 5709 5708 5708 5708 5708 5708 5708 5709 5709 5708 5707 5706 5705 5704 5703 5702 5701 5700 5699 5698 5698 5697 5696 5695 5694 5694 5693 5693 5692 5692 5692
5741 5741 5742 5742 5743 5744 5742 5741 5741 5741 5740 5739 5739 5738 5737 5737 5735 5733 5733 5731 5730 5731 5733 5735 5733 5730 5732 5733 5731 5731 5731 5730 5728 5726 5725 5723 5721 5719 5717 5716 5715 5714 5714 5712 5711 5710 5709 5709 5708 5708 5707 5706 5705 5703 5702 5701 5699 5698 5698 5698 5697 5697 5698 5698 5698 5697 5697 5696 5695 5694 5693 5691 5690 5689 5688 5687 5686 5685 5684 5684 5683 5682 5682 5682 5681 5680
5735 5736 5737 5737 5737 5738 5736 5735 5735 5735 5735 5733 5733 5732 5732 5732 5729 5726 5726 5726 5724 5722 5726 5730 5727 5724 5725 5726 5725 5724 5723 5723 5721 5719 5717 5715 5714 5712 5710 5709 5707 5706 5705 5704 5703 5702 5700 5699 5698 5698 5697 5696 5696 5694 5693 5691 5690 5689 5689 5689 5688 5688 5688 5688 5688 5687 5687 5686 5685 5684 5683 5682 5680 5679 5677 5676 5675 5674 5673 5673 5672 5671 5670 5670 5670 5669
5730 5731 5731 5731 5731 5732 5731 5728 5728 5729 5728 5727 5727 5727 5725 5724 5723 5719 5717 5719 5718 5712 5716 5723 5721 5718 5717 5717 5719 5718 5716 5716 5714 5711 5710 5707 5707 5705 5703 5702 5700 5699 5698 5696 5695 5693 5692 5691 5689 5688 5687 5686 5686 5685 5684 5682 5681 5680 5679 5679 5678 5678 5678 5677 5677 5677 5677 5676 5675 5674 5673 5672 5671 5669 5668 5666 5665 5664 5663 5662 5662 5661 5660 5659 5659 5658
5724 5724 5725 5725 5723 5724 5725 5722 5720 5721 5721 5720 5719 5719 5717 5714 5715 5713 5709 5709 5709 5703 5705 5712 5713 5712 5711 5709 5711 5710 5708 5708 5707 5704 5703 5701 5700 5698 5696 5695 5693 5691 5690 5688 5687 5685 5684 5682 5681 5680 5678 5677 5676 5675 5674 5673 5671 5670 5669 5669 5668 5668 5667 5666 5665 5665 5664 5664 5664 5663 5663 5662 5661 5659 5658 5657 5655 5654 5654 5652 5652 5651 5650 5649 5649 5648
5717 5718 5718 5718 5716 5716 5717 5716 5712 5712 5713 5712 5710 5710 5709 5706 5706 5706 5702 5700 5700 5695 5695 5699 5702 5705 5706 5703 5703 5702 5699 5699 5699 5697 5696 5694 5692 5690 5688 5687 5685 5684 5682 5680 5679 5677 5675 5673 5672 5671 5670 5669 5667 5666 5665 5664 5662 5661 5659 5659 5658 5657 5656 5655 5654 5653 5652 5652 5652 5651 5651 5650 5649 5649 5648 5647 5646 5644 5644 5643 5642 5641 5640 5639 5638 5638
5710 5710 5710 5712 5711 5709 5709 5709 5707 5704 5703 5703 5702 5701 5701 5700 5699 5698 5696 5693 5691 5688 5687 5688 5690 5695 5699 5699 5696 5694 5692 5692 5691 5689 5688 5686 5684 5682 5681 5679 5677 5675 5674 5672 5670 5669 5667 5665 5663 5661 5660 5659 5658 5657 5656 5655 5654 5652 5651 5650 5649 5647 5646 5645 5643 5643 5642 5641 5640 5639 5639 5638 5637 5637 5636 5636 5635 5634 5632 5631 5630 5629 5628 5628 5627 5627
5703 5702 5703 5705 5705 5702 5701 5701 5699 5697 5695 5694 5694 5694 5694 5693 5692 5689 5689 5689 5685 5680 5679 5678 5678 5684 5691 5691 5688 5686 5685 5684 5682 5680 5680 5679 5677 5675 5673 5671 5669 5667 5665 5663 5662 5660 5659 5657 5654 5652 5651 5649 5648 5647 5646 5645 5644 5643 5642 5640 5639 5637 5636 5634 5633 5633 5632 5631 5631 5630 5629 5627 5626 5625 5624 5624 5623 5622 5621 5620 5619 5618 5617 5616 5615 5615
5695 5693 5694 5696 5697 5697 5695 5691 5689 5688 5688 5686 5686 5687 5688 5686 5685 5681 5680 5683 5681 5674 5672 5671 5668 5673 5681 5682 5679 5678 5678 5676 5673 5672 5671 5671 5670 5668 5665 5663 5661 5659 5657 5655 5653 5651 5650 5648 5646 5644 5642 5640 5639 5638 5636 5635 5634 5633 5632 5630 5629 5627 5625 5624 5623 5622 5621 5621 5620 5620 5619 5617 5616 5615 5613 5612 5610 5610 5609 5608 5608 5607 5606 5605 5604 5603
5686 5683 5683 5685 5688 5690 5689 5683 5680 5679 5680 5679 5678 5681 5681 5678 5677 5674 5671 5673 5673 5668 5667 5665 5660 5663 5672 5673 5670 5670 5670 5667 5665 5664 5664 5663 5662 5659 5656 5655 5653 5651 5648 5646 5645 5643 5641 5639 5637 5635 5633 5631 5629 5628 5626 5625 5624 5623 5622 5620 5619 5617 5615 5613 5611 5610 5610 5609 5609 5608 5607 5606 5605 5604 5603 5601 5600 5598 5597 5596 5595 5595 5595 5594 5593 5592
5678 5676 5675 5676 5678 5681 5682 5678 5673 5671 5672 5671 5670 5673 5674 5671 5670 5668 5663 5662 5661 5659 5661 5658 5652 5656 5663 5664 5662 5661 5660 5659 5657 5657 5656 5655 5652 5650 5648 5646 5645 5642 5640 5638 5636 5634 5632 5630 5628 5625 5623 5621 5619 5617 5616 5615 5614 5613 5612 5610 5608 5606 5604 5602 5600 5598 5598 5597 5596 5595 5595 5594 5593 5592 5591 5589 5588 5587 5585 5584 5583 5581 5581 5581 5581 5581
5671 5669 5668 5668 5668 5671 5674 5672 5666 5664 5665 5664 5664 5664 5665 5665 5664 5660 5657 5654 5649 5649 5653 5650 5646 5651 5655 5655 5654 5652 5650 5650 5650 5648 5647 5645 5643 5642 5639 5637 5636 5634 5632 5630 5627 5625 5623 5620 5618 5616 5613 5611 5609 5607 5605 5603 5602 5601 5600 5598 5597 5595 5592 5591 5589 5587 5585 5584 5582 5581 5580 5579 5579 5578 5577 5576 5575 5574 5572 5571 5569 5568 5567 5566 5566 5566
5664 5661 5661 5661 5658 5660 5665 5665 5660 5655 5654 5656 5658 5659 5658 5658 5657 5653 5650 5646 5640 5640 5642 5642 5641 5644 5648 5648 5645 5642 5639 5640 5641 5639 5638 5636 5635 5633 5631 5629 5627 5625 5623 5621 5619 5616 5613 5611 5608 5606 5604 5601 5599 5597 5595 5593 5591 5589 5587 5585 5583 5582 5580 5578 5576 5574 5572 5571 5569 5567 5566 5564 5563 5563 5562 5560 5559 5558 5557 5556 5555 5554 5553 5551 5551 5551
5654 5653 5654 5653 5650 5651 5654 5654 5651 5647 5645 5647 5650 5652 5653 5652 5650 5647 5641 5636 5634 5633 5632 5636 5638 5635 5638 5643 5639 5631 5629 5630 5632 5630 5628 5626 5625 5623 5622 5620 5619 5616 5614 5612 5609 5606 5604 5601 5598 5596 5593 5591 5589 5587 5585 5582 5580 5578 5575 5572 5569 5568 5567 5565 5563 5560 5558 5557 5555 5553 5552 5550 5548 5547 5546 5545 5543 5541 5540 5539 5538 5537 5536 5535 5534 5533
5645 5644 5646 5644 5641 5643 5644 5643 5641 5639 5637 5639 5641 5644 5647 5647 5643 5638 5631 5628 5629 5624 5621 5631 5633 5624 5626 5635 5632 5625 5621 5620 5620 5619 5618 5616 5614 5613 5612 5611 5609 5607 5604 5602 5599 5596 5594 5591 5588 5585 5582 5580 5578 5576 5574 5572 5569 5567 5564 5560 5557 5554 5552 5550 5548 5546 5544 5542 5540 5538 5536 5534 5533 5531 5530 5528 5527 5526 5524 5522 5521 5520 5519 5517 5516 5515
5635 5635 5637 5634 5631 5634 5635 5633 5632 5631 5630 5631 5633 5636 5639 5640 5636 5629 5624 5624 5623 5614 5612 5621 5622 5615 5617 5623 5621 5617 5614 5611 5609 5608 5608 5608 5605 5602 5601 5600 5598 5596 5594 5592 5590 5587 5584 5581 5578 5575 5572 5570 5568 5565 5563 5561 5558 5555 5552 5549 5546 5543 5540 5537 5535 5533 5530 5528 5525 5523 5521 5519 5517 5515 5514 5512 5510 5509 5507 5506 5505 5503 5502 5501 5499 5498
5626 5626 5627 5625 5623 5626 5627 5624 5622 5623 5622 5623 5625 5628 5630 5630 5627 5623 5621 5621 5616 5607 5606 5609 5606 5605 5612 5612 5608 5607 5606 5603 5600 5599 5599 5598 5595 5593 5591 5589 5587 5585 5583 5582 5579 5576 5574 5571 5568 5566 5563 5560 5557 5554 5552 5549 5546 5543 5540 5537 5534 5531 5528 5525 5523 5520 5518 5515 5512 5509 5507 5505 5503 5501 5499 5497 5494 5492 5491 5489 5488 5487 5486 5484 5482 5481
5619 5618 5617 5616 5615 5617 5619 5615 5612 5613 5613 5613 5617 5622 5622 5620 5618 5616 5615 5613 5607 5601 5600 5598 5592 5595 5603 5602 5596 5595 5595 5593 5592 5590 5588 5587 5585 5584 5582 5580 5578 5575 5572 5570 5568 5565 5562 5559 5557 5554 5551 5547 5544 5541 5538 5536 5532 5529 5526 5523 5520 5517 5514 5512 5509 5507 5504 5501 5498 5495 5493 5491 5489 5487 5485 5482 5479 5477 5475 5474 5472 5471 5469 5468 5467 5465
5612 5610 5609 5608 5604 5608 5613 5607 5602 5605 5603 5602 5609 5616 5616 5612 5608 5606 5605 5603 5601 5597 5593 5588 5584 5585 5590 5589 5587 5586 5585 5585 5583 5581 5578 5576 5574 5574 5573 5570 5567 5564 5562 5560 5556 5553 5549 5546 5544 5540 5536 5533 5529 5527 5524 5521 5518 5515 5512 5509 5506 5503 5500 5498 5495 5492 5490 5487 5484 5481 5479 5476 5474 5472 5470 5467 5464 5462 5460 5458 5457 5456 5454 5452 5451 5450
5604 5602 5602 5599 5594 5599 5606 5598 5594 5596 5591 5592 5604 5610 5607 5603 5598 5595 5596 5597 5595 5590 5583 5579 5577 5577 5577 5577 5578 5577 5576 5575 5574 5571 5568 5565 5563 5563 5562 5559 5554 5552 5551 5548 5545 5541 5537 5533 5530 5525 5521 5518 5516 5513 5511 5508 5505 5502 5499 5496 5493 5490 5488 5485 5482 5479 5476 5474 5471 5468 5465 5462 5460 5458 5456 5453 5450 5447 5446 5444 5442 5440 5438 5437 5436 5435
5597 5594 5594 5591 5586 5589 5595 5590 5585 5583 5582 5589 5601 5601 5595 5592 5590 5587 5588 5589 5587 5581 5575 5570 5567 5566 5566 5567 5568 5567 5565 5564 5563 5560 5556 5552 5551 5551 5550 5546 5542 5540 5539 5536 5532 5528 5525 5521 5517 5512 5509 5506 5503 5501 5498 5495 5493 5490 5487 5485 5481 5479 5476 5474 5471 5468 5465 5463 5459 5456 5453 5450 5448 5445 5442 5440 5437 5435 5433 5430 5428 5426 5423 5421 5420 5419
5589 5587 5585 5583 5579 5579 5583 5582 5573 5570 5577 5586 5591 5590 5586 5583 5581 5579 5577 5578 5578 5574 5568 5562 5558 5556 5556 5556 5556 5555 5554 5554 5553 5549 5544 5540 5539 5539 5537 5534 5530 5528 5526 5523 5520 5517 5514 5511 5506 5502 5499 5496 5493 5490 5487 5485 5482 5480 5477 5474 5472 5469 5466 5464 5462 5459 5456 5453 5450 5446 5442 5439 5436 5433 5430 5428 5425 5423 5421 5417 5415 5412 5409 5406 5405 5404
5580 5578 5576 5575 5572 5569 5572 5571 5564 5562 5571 5578 5579 5580 5579 5575 5572 5567 5563 5567 5570 5566 5559 5553 5549 5549 5548 5546 5546 5545 5544 5543 5542 5539 5533 5528 5527 5527 5525 5522 5519 5517 5514 5511 5509 5506 5503 5500 5497 5493 5491 5488 5484 5482 5478 5476 5473 5471 5468 5466 5463 5461 5458 5456 5453 5450 5447 5444 5440 5436 5432 5429 5426 5423 5420 5417 5414 5411 5408 5405 5402 5399 5395 5393 5392 5390
5572 5570 5569 5567 5564 5562 5561 5560 5557 5555 5559 5569 5573 5571 5567 5564 5563 5556 5550 5555 5561 5557 5549 5543 5540 5540 5540 5538 5537 5535 5534 5532 5531 5527 5521 5517 5515 5514 5511 5509 5507 5505 5502 5500 5498 5496 5493 5491 5488 5485 5482 5479 5476 5473 5471 5468 5465 5463 5461 5458 5455 5453 5450 5448 5445 5442 5438 5435 5431 5427 5423 5418 5416 5413 5410 5407 5403 5399 5396 5392 5389 5386 5382 5379 5379 5378
5565 5563 5562 5558 5555 5556 5553 5550 5549 5546 5548 5559 5566 5562 5557 5554 5552 5546 5540 5544 5551 5549 5540 5534 5531 5530 5529 5528 5527 5525 5523 5520 5520 5517 5509 5505 5505 5504 5500 5498 5495 5494 5492 5490 5488 5486 5484 5482 5479 5476 5474 5471 5468 5466 5463 5460 5458 5456 5453 5450 5447 5445 5442 5439 5436 5433 5429 5425 5421 5417 5412 5408 5405 5402 5399 5396 5392 5388 5384 5381 5377 5374 5370 5367 5366 5365
5557 5556 5555 5549 5547 5550 5547 5542 5539 5537 5540 5549 5552 5551 5548 5544 5540 5535 5529 5533 5541 5540 5531 5526 5523 5519 5518 5517 5515 5513 5511 5508 5509 5507 5499 5494 5494 5493 5490 5488 5486 5484 5483 5481 5479 5478 5475 5473 5470 5467 5465 5462 5460 5458 5455 5453 5451 5448 5446 5443 5439 5437 5434 5431 5428 5424 5420 5415 5411 5406 5402 5399 5395 5392 5388 5385 5381 5376 5373 5369 5366 5363 5359 5356 5353 5352
5550 5548 5546 5542 5542 5543 5540 5533 5530 5531 5535 5537 5537 5538 5537 5532 5529 5525 5519 5521 5529 5528 5521 5518 5514 5510 5508 5506 5502 5501 5499 5497 5497 5496 5491 5486 5485 5483 5481 5479 5477 5476 5474 5472 5471 5469 5466 5464 5461 5459 5456 5454 5452 5450 5447 5445 5443 5441 5438 5435 5432 5429 5426 5423 5419 5415 5410 5406 5401 5397 5393 5389 5385 5382 5377 5373 5370 5366 5361 5358 5355 5352 5348 5346 5342 5339
5543 5539 5537 5536 5536 5536 5531 5525 5521 5524 5530 5529 5525 5524 5524 5520 5517 5515 5513 5513 5515 5513 5511 5509 5504 5501 5499 5495 5492 5490 5489 5486 5485 5486 5484 5480 5478 5475 5473 5471 5470 5468 5466 5464 5463 5460 5458 5456 5453 5451 5449 5447 5444 5442 5440 5438 5436 5433 5430 5426 5423 5421 5418 5414 5410 5405 5401 5397 5392 5388 5384 5379 5375 5371 5367 5362 5358 5355 5351 5347 5343 5341 5337 5335 5332 5329
5535 5531 5529 5529 5530 5527 5524 5518 5512 5514 5523 5524 5516 5513 5511 5508 5506 5505 5504 5503 5502 5500 5499 5496 5493 5492 5488 5485 5482 5481 5480 5478 5476 5475 5475 5472 5470 5469 5466 5464 5462 5460 5458 5457 5455 5453 5450 5448 5446 5444 5442 5440 5437 5434 5432 5430 5427 5424 5421 5418 5415 5412 5409 5405 5400 5396 5392 5387 5383 5379 5375 5370 5365 5361 5357 5352 5348 5344 5341 5337 5333 5331 5327 5325 5323 5322
5526 5523 5523 5524 5523 5518 5514 5510 5503 5505 5513 5513 5506 5503 5501 5498 5497 5496 5493 5490 5489 5489 5487 5483 5482 5481 5477 5474 5473 5472 5472 5471 5468 5467 5466 5464 5462 5462 5459 5458 5456 5453 5451 5450 5447 5445 5443 5441 5439 5437 5435 5433 5430 5427 5424 5421 5419 5415 5412 5409 5406 5403 5400 5396 5391 5387 5383 5378 5374 5370 5366 5361 5357 5352 5347 5343 5339 5335 5332 5328 5325 5322 5319 5316 5315 5314
5517 5518 5519 5519 5515 5507 5503 5501 5496 5497 5503 5501 5495 5494 5491 5488 5489 5488 5483 5479 5477 5475 5474 5471 5471 5470 5467 5465 5464 5463 5464 5464 5461 5460 5459 5457 5455 5454 5452 5451 5449 5446 5445 5443 5440 5439 5436 5434 5432 5430 5427 5424 5421 5419 5416 5413 5410 5407 5403 5400 5397 5394 5391 5387 5382 5378 5374 5370 5366 5362 5358 5353 5349 5344 5340 5336 5332 5328 5324 5320 5318 5315 5312 5309 5308 5307
5509 5512 5513 5510 5506 5498 5495 5493 5488 5488 5494 5492 5485 5483 5481 5479 5479 5477 5471 5468 5466 5463 5462 5460 5459 5460 5458 5456 5455 5455 5455 5455 5453 5453 5452 5450 5449 5447 5445 5444 5442 5440 5438 5436 5433 5432 5429 5427 5425 5422 5419 5416 5413 5410 5408 5405 5402 5399 5395 5392 5389 5386 5382 5378 5374 5370 5366 5362 5358 5354 5350 5346 5342 5338 5334 5330 5325 5322 5317 5313 5311 5308 5304 5302 5301 5300
5503 5506 5503 5498 5496 5490 5486 5487 5484 5481 5484 5482 5475 5473 5472 5471 5469 5465 5460 5458 5456 5455 5454 5451 5450 5451 5450 5448 5447 5447 5446 5446 5445 5444 5443 5443 5441 5440 5438 5436 5435 5433 5431 5428 5426 5424 5422 5420 5418 5415 5411 5408 5404 5402 5399 5395 5392 5390 5387 5384 5381 5377 5373 5370 5366 5363 5359 5354 5351 5347 5343 5340 5336 5332 5329 5325 5320 5316 5311 5306 5304 5301 5298 5296 5294 5293
5498 5500 5492 5486 5485 5480 5477 5480 5480 5475 5475 5474 5468 5465 5463 5460 5459 5457 5453 5450 5449 5448 5447 5445 5443 5442 5441 5440 5439 5438 5438 5438 5437 5436 5435 5434 5433 5432 5431 5429 5427 5425 5423 5421 5419 5416 5414 5412 5409 5407 5404 5400 5396 5394 5391 5387 5384 5381 5379 5376 5372 5369 5365 5362 5358 5355 5351 5347 5344 5340 5336 5333 5331 5328 5324 5320 5316 5311 5306 5301 5298 5294 5291 5289 5288 5286
5490 5491 5484 5477 5474 5471 5468 5472 5472 5466 5465 5467 5464 5459 5455 5452 5450 5448 5444 5442 5442 5441 5441 5439 5437 5435 5434 5433 5432 5431 5431 5431 5430 5429 5428 5427 5425 5424 5423 5421 5419 5417 5415 5413 5410 5408 5406 5404 5401 5399 5396 5392 5389 5386 5383 5379 5375 5373 5371 5368 5364 5361 5358 5354 5351 5347 5344 5340 5337 5333 5330 5327 5325 5322 5320 5316 5312 5307 5302 5297 5293 5290 5285 5282 5281 5280
5481 5479 5476 5469 5464 5462 5461 5462 5460 5454 5454 5458 5458 5453 5449 5446 5442 5438 5436 5435 5434 5434 5434 5433 5432 5430 5428 5427 5426 5425 5425 5424 5424 5423 5421 5419 5418 5416 5415 5413 5411 5409 5407 5405 5403 5400 5398 5396 5393 5391 5388 5385 5381 5378 5375 5371 5368 5365 5363 5360 5356 5353 5350 5347 5344 5340 5337 5334 5330 5327 5325 5322 5319 5317 5314 5311 5307 5303 5298 5293 5288 5285 5282 5277 5274 5273
5473 5470 5468 5459 5452 5453 5456 5454 5448 5442 5442 5447 5448 5444 5441 5439 5434 5431 5430 5429 5428 5427 5426 5426 5425 5424 5422 5421 5420 5418 5418 5418 5417 5415 5414 5413 5411 5408 5407 5405 5403 5401 5399 5397 5395 5393 5391 5388 5385 5383 5380 5377 5374 5371 5367 5364 5360 5357 5355 5352 5349 5346 5343 5340 5337 5334 5330 5327 5324 5321 5319 5317 5314 5312 5309 5306 5303 5300 5295 5289 5283 5279 5276 5274 5270 5266
5465 5460 5457 5449 5442 5443 5445 5445 5440 5433 5431 5434 5436 5434 5433 5432 5428 5425 5424 5423 5422 5420 5419 5417 5417 5417 5416 5415 5413 5411 5411 5411 5409 5408 5407 5405 5403 5401 5399 5397 5394 5392 5390 5388 5387 5385 5383 5380 5378 5375 5372 5369 5366 5363 5360 5356 5352 5350 5348 5345 5342 5339 5336 5333 5330 5327 5324 5321 5318 5316 5314 5312 5310 5307 5304 5301 5298 5294 5292 5288 5281 5274 5270 5268 5265 5262